Вернуться в каталог

SL-6 R/B(2)

АктивенHEO
NORAD 12384·ROCKET BODY·🇷🇺 Russia

Запущен Mar 31, 1981 с Plesetsk Cosmodrome

Loading…

Ближайшие Пролёты (ближайшие 24 часа)

TLE

СвежийSource: Space-Track

Эпоха: Sep 14, 2026, 10:57 UTC

1 12384U 81031D   26257.45652686 -.00000619  00000-0  00000-0 0  9992
2 12384  68.1367  63.7141 6068952 356.7445   0.5295  2.03544720337936

Отслеживайте SL-6 R/B(2) в реальном времени с AllMySat

Download on the App Store